Location: ????????
(56.1167°N, 38.6333°E)
Time: 20:52:41
(UTC+00:00)

Cosmos 1844 Rocket - Pass Details

Date: 18 November 2025
Orbit: 822 x 844 km, 71.0° (Epoch: 14 December)

Event Time Altitude Azimuth Distance (km) Brightness Sun altitude
Rises 14:29:56 0° 242° (WSW) 3,358 7.9 -10.5°
Reaches altitude 10° 14:32:30 10° 250° (WSW) 2,430 6.7 -10.8°
Maximum altitude 14:37:44 40° 320° (NW) 1,214 3.7 -11.5°
Drops below altitude 10° 14:43:00 10° 29° (NNE) 2,453 4.7 -12.2°
Enters shadow 14:43:35 - 32° (NNE) 2,658 4.9 -12.3°
